Location: Pian di Sc�
(43.6333°N, 11.5500°E)
Time: 18:05:14
(UTC+00:00)

UNK - Pass Details

Date: 07 August 2020
Orbit: 666 x 687 km, 98.1° (Epoch: 18 September)

Event Time Altitude Azimuth Distance (km) Brightness Sun altitude
Exits shadow 00:52:23 77° 57° (ENE) 711 3.8 -26.4°
Drops below altitude 10° 00:56:58 10° 350° (N) 2,146 7.0 -26.0°
Sets 00:59:14 0° 349° (N) 3,067 7.9 -25.8°
